Roseburg, OR

1:44 AM PST on November 22, 2017 (GMT -0800)
Roseburg Regional

Weather History for KRBG - April, 2013

Change the Weather History Date:

Wednesday, April 3, 2013

  Actual Average Record
Temperature  
Mean Temperature 57 °F 50 °F  
Max Temperature 69 °F 60 °F 83 °F (2000)
Min Temperature 45 °F 41 °F 29 °F (1956)
Degree Days  
Heating Degree Days 8 15  
Month to date heating degree days 21 45  
Since 1 July heating degree days 3165 3424  
Cooling Degree Days 0 0  
Month to date cooling degree days 0 0  
Year to date cooling degree days 0 0  
Growing Degree Days 6 (Base 50)    
Moisture  
Dew Point 48 °F    
Average Humidity 77    
Maximum Humidity 100    
Minimum Humidity 53    
Precipitation  
Precipitation 0.01 in 0.11 in 1.05 in (1993)
Month to date precipitation 0.27 0.31  
Year to date precipitation 5.10 12.85  
Sea Level Pressure  
Sea Level Pressure 30.07 in    
Wind  
Wind Speed 1 mph (WNW)    
Max Wind Speed 8 mph    
Max Gust Speed 17 mph    
Visibility 8 miles    
Events Fog , Rain    
T = Trace of Precipitation, MM = Missing Value Source: NWS Daily Summary

Daily Weather History Graph

Daily Weather History Graph

Search for Another Location

Airport or City:

Trip Planner

Search our weather history database for the weather conditions in past years. The results will help you decide how hot, cold, wet, or windy it might be!

Date:

Astronomy

Apr. 03, 2013 Rise Set
Actual Time 6:51 AM PDT 7:42 PM PDT
Civil Twilight 6:22 AM PDT 8:11 PM PDT
Nautical Twilight 5:48 AM PDT 8:46 PM PDT
Astronomical Twilight 5:12 AM PDT 9:22 PM PDT
Moon 2:47 AM PDT (4/3) 12:50 PM PDT (4/3)
Length of Visible Light 13h 49m
Length of Day
12h 51m
Last Quarter, 43% of the Moon is Illuminated
Apr 3
Last Quarter
Apr 10
New
Apr 18
First Quarter
Apr 25
Full
May 2
Last Quarter

Hourly Weather History & Observations

Time (PDT) Temp. Windchill Dew Point Humidity Pressure Visibility Wind Dir Wind Speed Gust Speed Precip Events Conditions
12:53 AM 52.0 °F - 48.0 °F 86% 30.16 in 10.0 mi Calm Calm - N/A   Clear
1:53 AM 50.0 °F - 46.0 °F 86% 30.15 in 10.0 mi Calm Calm - N/A   Clear
2:53 AM 48.9 °F - 46.0 °F 90% 30.15 in 10.0 mi Calm Calm - N/A   Clear
3:53 AM 48.0 °F - 46.0 °F 93% 30.15 in 10.0 mi Calm Calm - N/A   Clear
4:53 AM 46.9 °F - 45.0 °F 93% 30.15 in 10.0 mi Calm Calm - N/A   Clear
5:53 AM 45.0 °F - 44.1 °F 97% 30.13 in 10.0 mi Calm Calm - N/A   Clear
6:27 AM 44.6 °F 43.1 °F 44.6 °F 100% 30.13 in 10.0 mi WSW 3.5 mph - N/A   Scattered Clouds
6:36 AM 44.6 °F - 44.6 °F 100% 30.13 in 6.0 mi Calm Calm - N/A   Mostly Cloudy
6:51 AM 44.6 °F - 44.6 °F 100% 30.13 in 2.5 mi Calm Calm - N/A   Overcast
6:53 AM 45.0 °F - 45.0 °F 100% 30.13 in 2.0 mi Calm Calm - N/A   Overcast
6:58 AM 44.6 °F - 44.6 °F 100% 30.12 in 0.8 mi Calm Calm - N/A   Overcast
7:07 AM 46.4 °F - 44.6 °F 93% 30.12 in 0.2 mi Calm Calm - N/A Fog Fog
7:45 AM 46.4 °F - 46.4 °F 100% 30.12 in 1.2 mi Calm Calm - N/A   Overcast
7:47 AM 46.4 °F - 46.4 °F 100% 30.12 in 3.0 mi Calm Calm - N/A   Overcast
7:53 AM 46.9 °F - 46.0 °F 97% 30.12 in 8.0 mi Calm Calm - N/A   Overcast
8:40 AM 48.2 °F - 46.4 °F 93% 30.13 in 9.0 mi South 4.6 mph - N/A   Overcast
8:53 AM 48.0 °F - 46.9 °F 96% 30.13 in 8.0 mi Calm Calm - N/A   Overcast
9:53 AM 50.0 °F - 48.0 °F 93% 30.12 in 10.0 mi Calm Calm - N/A   Overcast
10:51 AM 51.8 °F - 48.2 °F 88% 30.11 in 10.0 mi Calm Calm - N/A   Scattered Clouds
10:53 AM 52.0 °F - 48.0 °F 86% 30.11 in 10.0 mi Calm Calm - N/A   Partly Cloudy
11:53 AM 57.0 °F - 48.9 °F 74% 30.11 in 10.0 mi Calm Calm - N/A   Clear
12:53 PM 63.0 °F - 50.0 °F 63% 30.07 in 10.0 mi Calm Calm - N/A   Clear
1:53 PM 66.0 °F - 50.0 °F 56% 30.05 in 10.0 mi Variable 5.8 mph - N/A   Clear
2:53 PM 66.9 °F - 52.0 °F 59% 30.02 in 10.0 mi NW 3.5 mph - N/A   Clear
3:53 PM 68.0 °F - 51.1 °F 55% 29.99 in 10.0 mi Calm Calm - N/A   Clear
4:53 PM 68.0 °F - 50.0 °F 52% 29.97 in 10.0 mi West 3.5 mph - N/A   Clear
5:53 PM 69.1 °F - 52.0 °F 54% 29.96 in 10.0 mi North 4.6 mph - N/A   Unknown
6:53 PM 66.9 °F - 50.0 °F 54% 29.96 in 10.0 mi Calm Calm - N/A   Partly Cloudy
7:53 PM 66.0 °F - 51.1 °F 59% 29.95 in 10.0 mi Calm Calm - N/A   Scattered Clouds
8:53 PM 63.0 °F - 53.1 °F 70% 29.94 in 10.0 mi Calm Calm - N/A   Mostly Cloudy
9:53 PM 62.1 °F - 53.1 °F 72% 29.93 in 10.0 mi Calm Calm - N/A   Overcast
10:53 PM 61.0 °F - 54.0 °F 78% 29.91 in 10.0 mi Calm Calm - 0.00 in Rain Light Rain
11:53 PM 59.0 °F - 55.0 °F 87% 29.86 in 10.0 mi North 4.6 mph - 0.01 in   Mostly Cloudy